Wind_Speed
91 93 95 100 107 117 119 126 125 122 116 114 112 107 105 102 105 105 106 108 107 105 105 108 107 104 101 92 93 98 103 100 96 94 91 88 86 82
95 97 103 113 122 122 132 131 125 123 124 117 117 111 108 105 100 104 108 112 116 111 109 109 106 101 98 96 90 96 100 98 92 97 96 94 93 95
103 109 119 129 132 135 130 124 123 129 136 130 126 122 118 112 105 103 107 108 116 115 115 114 112 110 103 105 107 112 111 111 104 101 101 94 93 94
117 124 135 137 127 125 125 123 125 128 133 128 126 124 116 109 97 97 96 97 102 110 113 110 111 110 110 107 108 109 114 107 109 107 102 95 93 98
125 126 124 123 120 126 132 132 133 125 119 113 103 104 101 97 96 96 92 84 82 90 96 100 105 105 108 104 107 110 114 113 116 114 106 99 99 99
126 126 121 122 128 129 129 123 114 104 98 92 90 85 83 80 78 80 87 92 88 83 79 84 97 107 105 103 107 106 109 114 118 116 113 105 104 101
125 123 123 126 124 122 113 104 93 87 83 78 75 73 71 72 71 73 74 79 80 82 80 83 85 95 99 104 109 107 103 114 110 118 113 109 108 105
126 128 128 123 116 106 95 88 81 78 72 70 67 65 65 64 63 65 67 69 72 75 78 83 80 85 90 100 106 118 108 108 108 107 110 104 103 100
134 123 116 106 97 88 82 77 72 69 65 63 61 60 58 57 56 58 58 61 65 69 76 81 83 86 87 95 103 116 108 107 103 100 102 102 103 103
121 115 102 90 83 77 73 68 64 62 58 58 54 50 49 48 47 51 54 55 60 68 72 75 76 87 90 89 93 93 84 85 85 87 86 90 100 99
110 98 87 80 74 68 67 62 59 57 54 52 47 45 44 44 44 46 49 52 56 59 65 68 71 74 76 81 87 88 87 86 82 87 86 86 93 98
96 86 79 73 67 64 62 60 56 53 50 45 42 42 40 41 40 41 43 45 47 49 56 65 67 68 70 72 75 78 82 82 88 93 88 90 87 83
85 77 72 68 63 60 57 57 51 48 44 40 39 39 38 35 34 35 36 39 43 48 53 56 59 60 61 62 68 76 81 82 82 81 80 87 89 87
75 70 67 64 59 55 53 53 47 44 39 38 37 38 37 34 30 29 30 34 37 40 48 52 52 56 64 69 71 74 77 81 81 81 84 88 92 95
68 65 63 59 55 49 51 49 43 39 37 36 36 37 36 34 32 32 30 32 37 42 46 50 52 54 56 61 65 67 70 75 76 77 83 87 91 94
63 60 57 54 50 48 50 46 41 35 35 32 34 36 36 36 34 35 37 38 37 41 46 48 51 53 58 61 66 69 70 73 76 76 78 80 84 87
58 55 51 50 44 45 48 42 36 31 32 30 30 33 36 37 37 36 39 42 45 47 51 53 54 57 61 65 68 70 72 74 76 76 78 81 83 83
53 49 46 44 40 42 47 42 38 30 29 30 29 29 34 36 37 40 41 45 48 51 54 55 56 60 61 61 65 69 74 78 80 81 81 83 86 86
48 46 42 42 39 41 44 40 32 26 24 26 30 32 33 34 38 40 44 47 48 51 55 56 58 61 65 67 68 69 72 76 79 80 82 84 85 85
45 42 42 42 37 40 42 39 35 31 29 29 31 32 35 38 38 39 43 46 48 48 50 52 55 57 59 61 63 65 67 68 70 73 76 78 80 83
43 40 41 38 38 41 40 38 35 33 33 32 30 32 34 36 37 38 39 41 43 45 48 50 51 53 55 57 60 62 64 67 69 72 74 75 77 78
41 39 39 35 37 36 37 35 34 35 34 33 32 31 31 33 35 36 37 39 40 42 45 48 50 53 55 58 60 63 64 64 66 68 70 71 73 75
39 39 34 35 35 35 35 35 35 35 33 32 30 28 28 29 32 35 36 38 40 42 44 46 48 50 51 53 55 58 59 60 62 65 68 67 71 74
Wind_Direction
292 289 288 292 293 297 296 297 295 293 287 283 281 277 273 270 269 270 268 267 266 261 263 264 263 265 265 268 270 267 265 270 270 269 270 268 268 267
289 291 291 295 299 297 297 298 294 291 289 286 285 281 276 272 267 266 262 263 262 261 259 257 257 257 260 262 256 258 266 267 265 267 268 268 269 270
290 293 297 300 298 298 298 298 296 295 293 292 288 286 283 281 271 261 260 257 259 261 260 258 256 254 254 254 255 257 260 262 262 264 266 266 266 266
294 293 297 299 297 297 295 293 288 287 286 288 287 288 288 285 280 277 271 263 259 257 258 258 256 253 253 253 254 258 258 257 261 262 265 267 264 263
299 296 298 300 299 293 291 289 291 290 288 286 283 280 279 276 276 275 273 266 261 259 255 250 254 253 250 252 253 255 256 258 261 262 264 263 261 262
306 306 303 299 295 295 293 293 291 289 288 284 282 279 276 273 268 264 263 263 263 257 248 247 247 248 251 252 252 253 254 254 257 260 263 262 263 263
306 301 298 296 296 296 295 293 292 289 286 284 281 277 273 270 266 261 257 257 256 254 248 245 244 245 248 249 253 254 251 252 255 258 260 263 265 266
304 303 301 299 298 296 295 293 291 288 286 284 282 279 276 271 265 260 256 253 252 251 250 249 244 241 243 244 246 253 254 254 255 257 261 263 264 266
306 302 300 299 297 296 294 292 289 286 284 283 280 278 275 270 264 261 258 251 245 244 243 241 242 243 239 239 241 246 250 252 254 257 259 262 263 266
303 300 300 299 297 297 294 290 288 286 284 282 282 278 274 268 262 257 253 247 243 242 239 240 235 239 240 239 245 249 252 253 253 252 256 257 259 260
302 301 300 300 299 296 291 291 287 286 285 284 282 278 273 268 260 253 251 248 244 242 244 242 240 239 242 247 250 254 257 259 257 259 262 263 262 262
302 301 300 299 298 294 291 290 289 288 287 286 280 276 270 266 261 255 251 246 240 237 237 238 239 240 240 242 245 249 253 256 255 259 261 256 259 260
300 301 300 298 296 292 291 289 290 288 285 283 279 276 271 262 258 255 249 244 240 237 236 238 240 242 245 245 249 248 252 253 255 256 258 256 257 259
300 300 298 296 293 290 289 288 289 286 283 280 278 275 270 268 259 254 248 239 234 230 232 237 239 240 242 245 246 250 254 255 256 256 258 258 259 259
300 298 295 293 291 290 287 288 289 284 280 278 274 271 267 265 261 254 251 245 238 234 237 240 241 242 242 241 243 247 250 253 258 260 260 260 261 262
298 296 293 290 292 290 286 287 286 283 278 273 274 268 263 260 257 253 250 250 246 246 248 248 248 249 246 245 246 249 250 255 255 257 260 261 261 262
296 293 291 290 292 288 287 290 288 282 276 271 268 265 263 260 258 255 249 246 249 248 248 251 251 251 252 252 253 254 256 255 255 260 260 263 264 265
293 290 289 289 291 284 286 289 291 284 271 267 267 262 258 262 260 257 254 251 249 249 251 251 250 249 252 253 254 254 254 255 257 264 266 268 270 270
292 291 289 288 289 284 284 288 288 285 277 271 271 268 261 256 258 259 256 254 254 252 252 254 256 257 259 261 261 262 264 265 266 268 269 270 272 272
289 289 287 289 285 281 282 288 289 288 285 281 275 269 264 262 260 257 256 256 255 256 256 255 255 257 258 260 262 264 266 267 269 270 272 273 274 275
288 286 284 287 286 282 284 287 289 289 288 284 275 267 263 260 260 262 263 262 262 262 262 263 264 266 267 269 270 271 272 273 274 275 276 277 277 277
286 283 285 284 282 283 285 287 289 291 288 285 280 272 262 259 259 260 262 264 264 265 265 266 267 268 270 271 272 273 274 274 275 275 276 277 279 279
285 283 281 280 280 282 284 288 290 290 286 281 276 273 269 265 263 262 262 263 265 265 267 268 269 271 272 274 276 277 278 279 280 281 281 281 282 282
Height
10549 10541 10534 10527 10519 10511 10499 10487 10476 10473 10478 10481 10477 10482 10481 10484 10482 10480 10475 10472 10473 10480 10486 10487 10494 10498 10503 10503 10503 10499 10501 10503 10510 10507 10509 10511 10512 10512
10526 10519 10509 10500 10489 10473 10461 10448 10434 10422 10420 10433 10427 10429 10432 10438 10446 10446 10441 10440 10435 10441 10450 10457 10464 10470 10475 10476 10475 10475 10473 10475 10483 10481 10484 10486 10487 10488
10499 10489 10479 10467 10452 10438 10423 10406 10392 10372 10359 10384 10373 10372 10374 10381 10397 10401 10404 10408 10403 10406 10411 10423 10432 10437 10443 10447 10447 10444 10445 10452 10454 10455 10458 10463 10467 10463
10470 10456 10443 10431 10416 10401 10388 10379 10366 10352 10333 10334 10329 10316 10315 10323 10331 10339 10352 10364 10371 10374 10376 10390 10393 10402 10412 10416 10418 10418 10421 10429 10428 10428 10430 10441 10440 10437
10441 10425 10408 10390 10374 10359 10347 10335 10322 10310 10295 10287 10296 10285 10286 10290 10292 10294 10296 10306 10321 10332 10339 10353 10360 10362 10372 10382 10387 10391 10394 10403 10398 10400 10407 10412 10412 10412
10399 10381 10362 10347 10334 10321 10305 10291 10281 10270 10260 10253 10251 10249 10249 10253 10257 10262 10264 10266 10272 10281 10301 10318 10325 10331 10339 10350 10355 10361 10366 10370 10369 10374 10378 10382 10385 10387
10357 10341 10326 10311 10295 10281 10267 10254 10244 10236 10229 10224 10221 10220 10221 10222 10222 10225 10231 10235 10240 10253 10265 10277 10296 10302 10313 10320 10323 10325 10335 10337 10345 10345 10350 10356 10357 10359
10318 10302 10289 10272 10258 10245 10234 10225 10217 10209 10204 10199 10196 10195 10194 10195 10196 10197 10203 10210 10217 10226 10234 10246 10260 10272 10282 10288 10297 10293 10300 10309 10316 10324 10324 10330 10331 10334
10283 10266 10252 10239 10225 10215 10207 10200 10193 10186 10182 10178 10176 10174 10173 10172 10174 10175 10179 10185 10193 10200 10207 10214 10227 10235 10244 10253 10259 10264 10274 10284 10291 10299 10300 10305 10304 10304
10249 10234 10222 10210 10199 10191 10182 10177 10171 10165 10163 10159 10158 10157 10155 10154 10156 10155 10158 10163 10168 10174 10180 10188 10200 10208 10217 10229 10237 10247 10256 10262 10268 10272 10274 10276 10276 10277
10218 10206 10196 10184 10176 10170 10160 10156 10152 10147 10145 10143 10141 10140 10139 10139 10141 10141 10142 10146 10151 10158 10164 10172 10180 10189 10200 10209 10217 10223 10230 10234 10238 10244 10249 10250 10252 10253
10193 10180 10171 10163 10158 10149 10142 10137 10135 10133 10129 10128 10127 10125 10126 10125 10126 10127 10129 10133 10138 10145 10150 10155 10162 10171 10179 10186 10195 10201 10207 10211 10216 10220 10224 10225 10226 10227
10169 10160 10150 10144 10138 10131 10127 10121 10120 10118 10116 10114 10113 10112 10113 10114 10115 10116 10118 10121 10126 10130 10136 10143 10150 10158 10164 10171 10177 10183 10187 10191 10193 10196 10199 10202 10204 10206
10148 10140 10133 10126 10121 10116 10112 10107 10106 10104 10103 10102 10101 10101 10100 10101 10104 10106 10108 10111 10115 10120 10125 10130 10136 10142 10148 10154 10160 10163 10167 10170 10172 10174 10177 10180 10184 10184
10130 10122 10116 10111 10106 10103 10097 10094 10094 10092 10091 10090 10090 10089 10090 10091 10093 10096 10100 10103 10106 10110 10115 10120 10124 10128 10132 10137 10141 10145 10149 10152 10155 10157 10158 10159 10160 10159
10114 10107 10101 10095 10092 10086 10083 10083 10083 10081 10080 10080 10079 10078 10080 10082 10084 10086 10089 10092 10097 10100 10104 10107 10111 10114 10118 10122 10126 10129 10131 10133 10135 10136 10136 10136 10136 10135
10099 10092 10087 10082 10079 10073 10069 10070 10071 10071 10069 10068 10068 10067 10069 10071 10073 10076 10078 10082 10085 10088 10092 10095 10098 10101 10104 10107 10109 10112 10113 10114 10115 10116 10116 10114 10112 10110
10084 10079 10074 10070 10067 10061 10058 10058 10058 10058 10058 10057 10058 10058 10058 10059 10061 10064 10067 10069 10072 10075 10077 10080 10082 10085 10087 10088 10091 10093 10094 10094 10094 10093 10091 10088 10084 10084
10070 10065 10061 10058 10055 10050 10047 10047 10048 10048 10049 10048 10048 10047 10050 10051 10051 10052 10053 10056 10058 10060 10062 10064 10066 10068 10069 10069 10072 10071 10071 10071 10070 10069 10067 10065 10058 10053
10057 10053 10049 10046 10043 10040 10037 10036 10037 10037 10038 10038 10037 10036 10037 10038 10040 10042 10042 10043 10045 10047 10049 10050 10051 10052 10052 10052 10053 10052 10051 10050 10048 10046 10044 10041 10037 10033
10044 10042 10039 10035 10031 10028 10028 10027 10026 10026 10025 10025 10025 10025 10025 10026 10026 10027 10029 10030 10031 10032 10034 10035 10035 10035 10034 10033 10032 10031 10030 10028 10027 10025 10021 10019 10015 10012
10032 10030 10028 10026 10022 10021 10018 10016 10016 10015 10013 10012 10012 10013 10013 10014 10015 10016 10017 10017 10018 10018 10019 10019 10019 10018 10018 10017 10015 10013 10013 10013 10010 10005 10001 9999 9995 9990
10020 10018 10017 10015 10013 10011 10011 10008 10006 10004 10003 10002 10002 10002 10002 10003 10004 10004 10004 10005 10005 10005 10005 10005 10005 10005 10004 10001 9998 9996 9995 9992 9989 9984 9977 9977 9972 9968